FW0314 Weather Reports


time (UTC)temp
C
wind
direction
speed
KPH
gust
KPH
rain 1hr
cm
rain 24hr
cm
rain mn
cm
humidity
%
barometer
mb
20260503225004 24 20 4.8 20.9 0.00 0.00 0.00 36 1011.9
20260503224504 24 29 4.8 20.9 0.00 0.00 0.00 35 1011.9
20260503224005 23 22 6.4 20.9 0.00 0.00 0.00 36 1012.1
20260503223504 23 20 6.4 20.9 0.00 0.00 0.00 38 1012.2
20260503223005 23 13 4.8 20.9 0.00 0.00 0.00 37 1012.2
20260503222504 23 1 6.4 17.7 0.00 0.00 0.00 38 1012.3
20260503222004 23 3 6.4 19.3 0.00 0.00 0.00 37 1012.3
20260503221504 23 9 6.4 19.3 0.00 0.00 0.00 37 1012.4
20260503221004 23 6 6.4 19.3 0.00 0.00 0.00 37 1012.4
20260503220525 23 19 6.4 19.3 0.00 0.00 0.00 37 1012.5
20260503220025 23 18 6.4 19.3 0.00 0.00 0.00 37 1012.5
20260503215505 23 24 4.8 27.4 0.00 0.00 0.00 37 1012.7
20260503215004 23 36 6.4 27.4 0.00 0.00 0.00 39 1012.7
20260503214504 22 36 6.4 27.4 0.00 0.00 0.00 38 1012.7
20260503214004 23 30 6.4 27.4 0.00 0.00 0.00 39 1012.7
20260503213504 23 16 8.0 27.4 0.00 0.00 0.00 37 1012.7
20260503213004 23 10 8.0 22.5 0.00 0.00 0.00 38 1012.7
20260503212504 23 12 6.4 22.5 0.00 0.00 0.00 37 1012.8
20260503212004 23 9 6.4 17.7 0.00 0.00 0.00 39 1012.7
20260503211525 22 22 6.4 17.7 0.00 0.00 0.00 39 1012.8
20260503211004 23 32 6.4 19.3 0.00 0.00 0.00 38 1012.9
20260503210504 22 18 6.4 20.9 0.00 0.00 0.00 40 1012.8
20260503210004 22 4 6.4 20.9 0.00 0.00 0.00 38 1012.9
20260503205504 22 16 6.4 20.9 0.00 0.00 0.00 40 1013.0
20260503205004 22 26 6.4 20.9 0.00 0.00 0.00 39 1013.1
20260503204525 22 20 4.8 20.9 0.00 0.00 0.00 39 1013.1
20260503204004 22 7 4.8 19.3 0.00 0.00 0.00 43 1013.2
20260503203525 22 18 6.4 19.3 0.00 0.00 0.00 44 1013.2
20260503203004 22 21 6.4 19.3 0.00 0.00 0.00 43 1013.2
20260503202504 21 15 4.8 19.3 0.00 0.00 0.00 44 1013.3
20260503202004 21 4 4.8 19.3 0.00 0.00 0.00 44 1013.4
20260503201504 21 19 6.4 19.3 0.00 0.00 0.00 45 1013.4
20260503201025 21 36 6.4 19.3 0.00 0.00 0.00 45 1013.5
20260503200004 21 7 4.8 14.5 0.00 0.00 0.00 46 1013.7
20260503195504 21 26 4.8 14.5 0.00 0.00 0.00 47 1013.7
20260503195003 21 29 4.8 16.1 0.00 0.00 0.00 49 1013.8
20260503194504 21 21 4.8 16.1 0.00 0.00 0.00 49 1013.8
20260503194003 21 25 4.8 16.1 0.00 0.00 0.00 50 1013.7
20260503193525 21 29 4.8 16.1 0.00 0.00 0.00 51 1013.8
20260503193004 20 32 4.8 16.1 0.00 0.00 0.00 52 1013.9
20260503192525 20 26 4.8 16.1 0.00 0.00 0.00 53 1013.9
20260503192004 20 24 6.4 16.1 0.00 0.00 0.00 54 1014.1
20260503191504 20 34 6.4 16.1 0.00 0.00 0.00 52 1014.2
20260503191004 20 32 6.4 16.1 0.00 0.00 0.00 52 1014.1
20260503190504 20 15 6.4 24.1 0.00 0.00 0.00 51 1014.2
20260503190004 20 19 4.8 24.1 0.00 0.00 0.00 49 1014.1
20260503185504 20 36 3.2 24.1 0.00 0.00 0.00 52 1014.1
20260503185004 20 23 4.8 24.1 0.00 0.00 0.00 50 1014.2
20260503184503 20 13 4.8 24.1 0.00 0.00 0.00 49 1014.2
20260503184004 21 19 4.8 16.1 0.00 0.00 0.00 51 1014.3
20260503183524 20 38 4.8 16.1 0.00 0.00 0.00 52 1014.3
20260503183004 20 43 4.8 17.7 0.00 0.00 0.00 53 1014.3
20260503182503 20 17 4.8 17.7 0.00 0.00 0.00 54 1014.4
20260503182004 20 16 4.8 22.5 0.00 0.00 0.00 55 1014.4
20260503181504 20 27 6.4 22.5 0.00 0.00 0.00 56 1014.5
20260503181004 19 23 8.0 22.5 0.00 0.00 0.00 55 1014.4
20260503180503 19 27 8.0 22.5 0.00 0.00 0.00 56 1014.4
20260503180004 19 23 9.7 25.7 0.00 0.00 0.00 55 1014.4
20260503175525 19 20 8.0 25.7 0.00 0.00 0.00 55 1014.5
20260503175004 19 23 6.4 25.7 0.00 0.00 0.00 55 1014.6
20260503174503 19 20 8.0 25.7 0.00 0.00 0.00 56 1014.7
20260503174003 19 20 8.0 19.3 0.00 0.00 0.00 55 1014.8
20260503173524 19 16 6.4 19.3 0.00 0.00 0.00 56 1014.7
20260503173024 19 20 6.4 19.3 0.00 0.00 0.00 56 1014.7
20260503172504 19 29 6.4 19.3 0.00 0.00 0.00 55 1014.7
20260503172004 19 26 6.4 22.5 0.00 0.00 0.00 56 1014.6
20260503171504 19 27 6.4 22.5 0.00 0.00 0.00 57 1014.6
20260503171004 18 19 6.4 22.5 0.00 0.00 0.00 57 1014.7
20260503170503 18 21 8.0 22.5 0.00 0.00 0.00 57 1014.7
20260503151004 16 30 6.4 14.5 0.00 0.00 0.00 64 1014.9
20260503150504 16 31 6.4 14.5 0.00 0.00 0.00 64 1014.9
20260503131025 14 30 4.8 14.5 0.00 0.00 0.00 66 1014.5
20260503130504 14 27 4.8 14.5 0.00 0.00 0.00 66 1014.5
20260503110503 13 36 1.6 8.0 0.00 0.00 0.00 68 1014.8
20260503090503 14 26 1.6 11.3 0.00 0.00 0.00 65 1014.9
20260503081503 15 18 0.0 3.2 0.00 0.00 0.00 60 1015.0
20260503081003 15 21 0.0 3.2 0.00 0.00 0.00 60 1015.0
20260503080503 16 24 0.0 3.2 0.00 0.00 0.00 60 1015.1
20260503072505 16 47 1.6 8.0 0.00 0.00 0.00 55 1014.9
20260503072005 16 51 1.6 8.0 0.00 0.00 0.00 55 1014.8
20260503071526 16 43 1.6 8.0 0.00 0.00 0.00 55 1014.9
20260503071005 16 30 1.6 8.0 0.00 0.00 0.00 55 1014.8
20260503070505 17 31 1.6 6.4 0.00 0.00 0.00 54 1014.8
20260503055005 17 5 1.6 4.8 0.00 0.00 0.00 50 1014.6
20260503054526 17 5 1.6 4.8 0.00 0.00 0.00 50 1014.6
20260503054005 18 5 1.6 4.8 0.00 0.00 0.00 50 1014.6
20260503053505 18 5 1.6 4.8 0.00 0.00 0.00 49 1014.6
20260503053005 18 4 1.6 6.4 0.00 0.00 0.00 48 1014.6
20260503052505 18 3 1.6 6.4 0.00 0.00 0.00 48 1014.7
20260503052005 18 17 1.6 6.4 0.00 0.00 0.00 48 1014.7
20260503051505 18 23 1.6 6.4 0.00 0.00 0.00 47 1014.7
20260503051005 18 14 1.6 6.4 0.00 0.00 0.00 47 1014.6
20260503050505 18 12 1.6 6.4 0.00 0.00 0.00 47 1014.6
20260503050026 18 15 1.6 6.4 0.00 0.00 0.00 47 1014.6
20260503045505 18 8 1.6 6.4 0.00 0.00 0.00 46 1014.6
20260503045005 19 360 1.6 4.8 0.00 0.00 0.00 46 1014.6
20260503044505 19 360 1.6 4.8 0.00 0.00 0.00 45 1014.5
20260503044026 19 2 1.6 4.8 0.00 0.00 0.00 45 1014.5
20260503043505 19 10 1.6 4.8 0.00 0.00 0.00 45 1014.4
20260503043005 19 11 1.6 4.8 0.00 0.00 0.00 45 1014.5
20260503042505 19 2 1.6 4.8 0.00 0.00 0.00 44 1014.4
20260503042005 19 355 1.6 4.8 0.00 0.00 0.00 44 1014.4
20260503041505 19 355 1.6 4.8 0.00 0.00 0.00 44 1014.4
20260503041026 19 359 1.6 4.8 0.00 0.00 0.00 44 1014.3
20260503040505 20 4 1.6 4.8 0.00 0.00 0.00 44 1014.2
20260503040005 20 11 1.6 4.8 0.00 0.00 0.00 44 1014.2
20260503035526 20 11 1.6 4.8 0.00 0.00 0.00 44 1014.0
20260503035005 20 8 1.6 4.8 0.00 0.00 0.00 44 1014.1
20260503034505 20 4 1.6 6.4 0.00 0.00 0.00 44 1014.0
20260503034005 20 5 1.6 6.4 0.00 0.00 0.00 44 1013.8
20260503033526 20 12 1.6 8.0 0.00 0.00 0.00 44 1013.8
20260503033005 20 7 1.6 8.0 0.00 0.00 0.00 44 1013.9
20260503032505 20 7 3.2 8.0 0.00 0.00 0.00 44 1013.8
20260503032005 20 16 3.2 8.0 0.00 0.00 0.00 44 1013.6
20260503031505 20 27 3.2 8.0 0.00 0.00 0.00 44 1013.6
20260503031026 20 30 3.2 12.9 0.00 0.00 0.00 44 1013.6
20260503030506 20 25 3.2 12.9 0.00 0.00 0.00 44 1013.6
20260503030005 20 10 1.6 12.9 0.00 0.00 0.00 44 1013.6
20260503025505 20 20 3.2 12.9 0.00 0.00 0.00 44 1013.5
20260503025005 20 37 3.2 9.7 0.00 0.00 0.00 44 1013.5
20260503024505 20 43 3.2 9.7 0.00 0.00 0.00 44 1013.5
20260503024005 20 61 3.2 8.0 0.00 0.00 0.00 43 1013.5
20260503023505 20 64 3.2 9.7 0.00 0.00 0.00 44 1013.5
20260503023005 21 33 3.2 9.7 0.00 0.00 0.00 43 1013.5
20260503022505 21 23 3.2 14.5 0.00 0.00 0.00 43 1013.5
20260503022005 21 21 4.8 14.5 0.00 0.00 0.00 42 1013.5
20260503021505 21 16 4.8 14.5 0.00 0.00 0.00 43 1013.5
20260503021005 21 19 4.8 14.5 0.00 0.00 0.00 43 1013.5
20260503020505 21 23 4.8 14.5 0.00 0.00 0.00 43 1013.5
20260503020005 21 4 3.2 14.5 0.00 0.00 0.00 43 1013.6
20260503015505 21 358 3.2 8.0 0.00 0.00 0.00 44 1013.7
20260503015005 21 29 1.6 9.7 0.00 0.00 0.00 43 1013.8
20260503014505 21 38 3.2 9.7 0.00 0.00 0.00 44 1013.9
20260503014005 21 29 3.2 9.7 0.00 0.00 0.00 43 1013.9
20260503013505 21 14 4.8 9.7 0.00 0.00 0.00 43 1013.9
20260503013005 21 24 3.2 9.7 0.00 0.00 0.00 42 1013.8
20260503012505 21 32 3.2 9.7 0.00 0.00 0.00 42 1013.9
20260503012005 21 18 3.2 9.7 0.00 0.00 0.00 42 1014.0
20260503011005 21 25 3.2 12.9 0.00 0.00 0.00 43 1013.9
20260503010526 21 30 4.8 12.9 0.00 0.00 0.00 43 1013.9
20260503010026 21 35 4.8 12.9 0.00 0.00 0.00 43 1013.9
20260503005505 21 31 3.2 12.9 0.00 0.00 0.00 43 1013.9
20260503005005 21 34 4.8 12.9 0.00 0.00 0.00 44 1013.9
20260503004505 21 38 4.8 12.9 0.00 0.00 0.00 43 1013.9
20260503004005 21 36 4.8 16.1 0.00 0.00 0.00 43 1013.9
20260503003504 21 39 4.8 16.1 0.00 0.00 0.00 44 1014.1
20260503003005 22 30 4.8 16.1 0.00 0.00 0.00 44 1014.0
20260503002526 22 27 4.8 16.1 0.00 0.00 0.00 44 1014.0
20260503002005 22 30 4.8 16.1 0.00 0.00 0.00 44 1014.0
20260503001504 22 31 4.8 14.5 0.00 0.00 0.00 46 1014.0
20260503001005 21 29 6.4 14.5 0.00 0.00 0.00 45 1014.0
20260503000505 22 22 6.4 14.5 0.00 0.00 0.00 45 1013.9
20260503000005 22 8 4.8 14.5 0.00 0.00 0.00 45 1014.1
20260502235526 22 4 4.8 16.1 0.00 0.00 0.00 45 1014.2
20260502235005 22 19 4.8 16.1 0.00 0.00 0.00 46 1014.1
20260502234526 22 12 4.8 16.1 0.00 0.00 0.00 46 1014.3
20260502234004 21 11 4.8 16.1 0.00 0.00 0.00 46 1014.3
20260502233504 21 10 4.8 16.1 0.00 0.00 0.00 45 1014.3
20260502233004 22 26 4.8 14.5 0.00 0.00 0.00 45 1014.5
20260502232526 22 50 3.2 16.1 0.00 0.00 0.00 46 1014.5
20260502231504 21 5 3.2 16.1 0.00 0.00 0.00 47 1014.6
20260502231004 21 21 4.8 16.1 0.00 0.00 0.00 49 1014.6
20260502230504 21 22 4.8 16.1 0.00 0.00 0.00 48 1014.7
20260502230004 21 20 4.8 16.1 0.00 0.00 0.00 50 1014.8
20260502225504 21 17 4.8 17.7 0.00 0.00 0.00 50 1014.9